Torna al catalogo

STARLINK-31212

AttivoComunicazioniVLEO
NORAD 58875·PAYLOAD·🇺🇸 United States

Lanciato Jan 29, 2024 da Cape Canaveral Space Force Station

Loading…

Prossimi Passaggi (prossime 24 ore)

TLE

AggiornatoSource: CelesTrak SupGP

Epoca: Sep 14, 2026, 21:25 UTC

1 58875C 24019Y   26257.89284722  .00033488  00000+0  12131-2 0  2575
2 58875  42.9991 260.0511 0001455 264.8459  60.3592 15.27556696    15

Traccia STARLINK-31212 in tempo reale con AllMySat

Download on the App Store